Zurück zum Katalog

STARLINK-11345

AktivKommunikationVLEO
NORAD 62093·PAYLOAD·🇺🇸 United States

Gestartet Nov 25, 2024 von Cape Canaveral Space Force Station

Loading…

Nächste Überflüge (nächste 24 Stunden)

TLE

AktuellSource: CelesTrak SupGP

Epoche: Sep 15, 2026, 03:25 UTC

1 62093C 24220F   26258.14284722 -.00019516  00000+0 -15163-3 0  2583
2 62093  43.0002 341.1122 0001692 278.3525 283.2737 15.70840061    10

Verfolge STARLINK-11345 in Echtzeit mit AllMySat

Download on the App Store